Terminal Aerodrome Forecast
Issued by NWS Twin Cities, MN

Home | Current Version | Previous Version | Text Only | Print | Product List | Glossary Off
Versions: 1 2 3 4 5 6 7 8 9 10 11 12 13 14 15 16 17 18 19 20 21 22 23 24 25 26 27 28 29 30 31

000
FTUS43 KMPX 160200 AAA
TAFMSP
TAF AMD
KMSP 160245Z 1603/1706 35015G21KT 3SM -RAPL BR OVC009
      TEMPO 1603/1605 2SM -SN OVC012
     FM160500 33018G27KT 1 1/2SM -SN BR OVC012
     FM160900 33020G28KT 5SM -SN OVC014
     FM161200 33017G24KT P6SM OVC016
     FM162100 32015G21KT P6SM OVC018=

USA.gov is the U.S. government's official web portal to all federal, state and local government web resources and services.